Lone Rock, WI

5:49 AM CDT on October 21, 2017 (GMT -0500)
Tri-County Regional

Weather History for KLNR - February, 2013

Change the Weather History Date:

Thursday, February 7, 2013

  Actual Average Record
Temperature  
Mean Temperature 32 °F -  
Max Temperature 35 °F 30 °F 46 °F (2002)
Min Temperature 27 °F 13 °F -11 °F (2014)
Degree Days  
Heating Degree Days 34    
Moisture  
Dew Point 29 °F    
Average Humidity 86    
Maximum Humidity 100    
Minimum Humidity 72    
Precipitation  
Precipitation 0.38 in - - ()
Sea Level Pressure  
Sea Level Pressure 29.99 in    
Wind  
Wind Speed 6 mph (NNE)    
Max Wind Speed 18 mph    
Max Gust Speed 26 mph    
Visibility 2 miles    
Events Fog , Rain , Snow    
Averages and records for this station are not official NWS values.
T = Trace of Precipitation, MM = Missing Value Source: NWS Daily Summary

Daily Weather History Graph

Daily Weather History Graph

Search for Another Location

Airport or City:

Trip Planner

Search our weather history database for the weather conditions in past years. The results will help you decide how hot, cold, wet, or windy it might be!

Date:

Astronomy

Feb. 07, 2013 Rise Set
Actual Time 7:08 AM CST 5:21 PM CST
Civil Twilight 6:39 AM CST 5:51 PM CST
Nautical Twilight 6:05 AM CST 6:24 PM CST
Astronomical Twilight 5:32 AM CST 6:58 PM CST
Moon 4:51 AM CST (2/7) 2:43 PM CST (2/7)
Length of Visible Light 11h 11m
Length of Day
10h 12m
Waning Crescent, 9% of the Moon is Illuminated
Feb 7
Waning Crescent
Feb 10
New
Feb 17
First Quarter
Feb 25
Full
Mar 4
Last Quarter

Hourly Weather History & Observations

Time (CST) Temp. Windchill Dew Point Humidity Pressure Visibility Wind Dir Wind Speed Gust Speed Precip Events Conditions
12:56 AM 35.1 °F 30.1 °F 30.0 °F 82% 30.04 in 5.0 mi East 5.8 mph - 0.00 in Rain Light Rain
1:56 AM 35.1 °F 28.6 °F 30.0 °F 82% 30.02 in 5.0 mi ESE 8.1 mph - 0.02 in   Haze
2:56 AM 34.0 °F 28.0 °F 30.9 °F 89% 30.01 in 5.0 mi East 6.9 mph - 0.00 in   Overcast
3:56 AM 35.1 °F 28.6 °F 30.9 °F 85% 29.99 in 5.0 mi East 8.1 mph - N/A   Overcast
4:56 AM 35.1 °F 28.6 °F 30.9 °F 85% 30.00 in 5.0 mi East 8.1 mph - N/A   Overcast
5:56 AM 34.0 °F 28.8 °F 30.9 °F 89% 29.99 in 4.0 mi East 5.8 mph - N/A   Overcast
6:56 AM 34.0 °F 27.2 °F 30.9 °F 89% 29.98 in 4.0 mi East 8.1 mph - N/A   Overcast
7:14 AM 35.6 °F 28.6 °F 30.2 °F 81% 29.97 in 4.0 mi East 9.2 mph - N/A   Overcast
7:33 AM 33.8 °F 27.7 °F 30.2 °F 87% 29.97 in 2.5 mi East 6.9 mph - 0.00 in Rain Light Rain
7:56 AM 34.0 °F 28.0 °F 30.9 °F 89% 29.99 in 2.5 mi East 6.9 mph - 0.00 in Rain Light Rain
8:17 AM 33.8 °F 28.6 °F 32.0 °F 93% 29.98 in 2.0 mi East 5.8 mph - 0.00 in Rain Light Rain
8:48 AM 33.8 °F 28.6 °F 32.0 °F 93% 29.98 in 1.8 mi East 5.8 mph - 0.02 in Rain Light Rain
8:56 AM 34.0 °F 28.8 °F 32.0 °F 92% 29.99 in 1.8 mi East 5.8 mph - 0.02 in Rain Light Rain
9:40 AM 33.8 °F - 32.0 °F 93% 29.99 in 1.0 mi Calm Calm - 0.02 in Snow Light Snow
9:52 AM 33.8 °F 30.8 °F 32.0 °F 93% 29.98 in 0.8 mi ENE 3.5 mph - 0.03 in Snow Light Snow
9:56 AM 34.0 °F 31.0 °F 32.0 °F 92% 29.99 in 0.8 mi NE 3.5 mph - 0.03 in Snow Light Snow
10:47 AM 33.8 °F 30.8 °F 30.2 °F 87% 29.98 in 0.8 mi East 3.5 mph - 0.03 in Snow Light Snow
10:56 AM 34.0 °F - 32.0 °F 92% 29.99 in 0.8 mi Calm Calm - 0.04 in Snow Light Snow
11:06 AM 33.8 °F - 32.0 °F 93% 29.99 in 0.2 mi Calm Calm - 0.03 in Fog , Snow Snow
11:17 AM 33.8 °F 30.8 °F 30.2 °F 87% 29.99 in 0.2 mi NE 3.5 mph - 0.08 in Fog , Snow Light Snow
11:20 AM 33.8 °F - 30.2 °F 87% 29.99 in 0.5 mi Calm Calm - 0.08 in Fog , Snow Light Snow
11:56 AM 34.0 °F - 32.0 °F 92% 29.97 in 0.8 mi Calm Calm - 0.12 in Snow Light Snow
12:13 PM 33.8 °F - 32.0 °F 93% 29.96 in 0.8 mi Calm Calm - 0.01 in Snow Light Snow
12:20 PM 33.8 °F - 32.0 °F 93% 29.95 in 0.8 mi Calm Calm - 0.01 in Snow Light Snow
12:33 PM 33.8 °F - 32.0 °F 93% 29.94 in 0.8 mi Calm Calm - 0.01 in Snow Light Snow
12:46 PM 33.8 °F - 33.8 °F 100% 29.94 in 1.0 mi Calm Calm - 0.02 in Snow Light Snow
12:56 PM 34.0 °F - 33.1 °F 96% 29.95 in 1.0 mi Calm Calm - 0.02 in Snow Light Snow
1:13 PM 35.6 °F - 33.8 °F 93% 29.94 in 1.5 mi Calm Calm - 0.01 in Snow Light Snow
1:36 PM 35.6 °F 32.8 °F 32.0 °F 87% 29.93 in 2.0 mi NE 3.5 mph - 0.02 in Snow Light Snow
1:56 PM 35.1 °F 30.1 °F 32.0 °F 89% 29.94 in 2.0 mi NE 5.8 mph - 0.02 in Snow Light Snow
2:09 PM 35.6 °F 30.7 °F 32.0 °F 87% 29.93 in 1.5 mi NNE 5.8 mph - 0.01 in Snow Light Snow
2:26 PM 33.8 °F 27.7 °F 30.2 °F 87% 29.93 in 1.0 mi NE 6.9 mph - 0.02 in Snow Light Snow
2:32 PM 33.8 °F 28.6 °F 30.2 °F 87% 29.93 in 0.8 mi NE 5.8 mph - 0.02 in Snow Light Snow
2:56 PM 34.0 °F 29.8 °F 30.9 °F 89% 29.94 in 0.5 mi NNE 4.6 mph - 0.04 in Fog , Snow Snow
3:10 PM 33.8 °F 27.7 °F 30.2 °F 87% 29.93 in 1.0 mi NNE 6.9 mph - 0.01 in Snow Light Snow
3:36 PM 33.8 °F 29.6 °F 30.2 °F 87% 29.94 in 1.0 mi North 4.6 mph - 0.01 in Snow Light Snow
3:46 PM 33.8 °F 30.8 °F 30.2 °F 87% 29.94 in 0.8 mi NNE 3.5 mph - 0.02 in Snow Light Snow
3:56 PM 34.0 °F 29.8 °F 30.9 °F 89% 29.94 in 0.8 mi NNE 4.6 mph - 0.02 in Snow Light Snow
4:15 PM 33.8 °F 29.6 °F 30.2 °F 87% 29.94 in 0.5 mi NE 4.6 mph - 0.02 in Fog , Snow Snow
4:33 PM 33.8 °F 27.7 °F 28.4 °F 81% 29.94 in 0.8 mi NNE 6.9 mph - 0.02 in Snow Light Snow
4:42 PM 33.8 °F 29.6 °F 30.2 °F 87% 29.95 in 0.8 mi NNE 4.6 mph - 0.02 in Snow Light Snow
4:52 PM 33.8 °F 28.6 °F 28.4 °F 81% 29.95 in 0.8 mi North 5.8 mph - 0.03 in Snow Light Snow
4:56 PM 32.0 °F 25.6 °F 28.9 °F 88% 29.96 in 0.8 mi North 6.9 mph - 0.03 in Snow Light Snow
5:18 PM 32.0 °F 23.6 °F 28.4 °F 87% 29.96 in 0.5 mi North 10.4 mph - 0.00 in Fog , Snow Snow
5:25 PM 32.0 °F 26.4 °F 28.4 °F 87% 29.97 in 0.8 mi NNW 5.8 mph - 0.01 in Snow Light Snow
5:28 PM 32.0 °F 23.0 °F 28.4 °F 87% 29.97 in 1.0 mi NNW 11.5 mph 18.4 mph 0.01 in Snow Light Snow
5:36 PM 32.0 °F 23.6 °F 26.6 °F 80% 29.98 in 1.2 mi North 10.4 mph 18.4 mph 0.01 in Snow Light Snow
5:46 PM 30.2 °F 20.2 °F 26.6 °F 86% 29.98 in 1.2 mi North 12.7 mph 19.6 mph 0.01 in Snow Light Snow
5:56 PM 30.9 °F 20.2 °F 26.1 °F 82% 30.00 in 1.5 mi North 15.0 mph 19.6 mph 0.01 in Snow Light Snow
6:05 PM 30.2 °F 21.3 °F 26.6 °F 86% 29.99 in 1.5 mi North 10.4 mph 19.6 mph 0.00 in Snow Light Snow
6:56 PM 30.0 °F 22.4 °F 25.0 °F 82% 30.03 in 1.5 mi North 8.1 mph 20.7 mph 0.00 in Snow Light Snow
7:02 PM 30.2 °F 20.2 °F 24.8 °F 80% 30.02 in 1.5 mi North 12.7 mph 18.4 mph 0.00 in Snow Light Snow
7:16 PM 30.2 °F 23.4 °F 24.8 °F 80% 30.03 in 1.8 mi North 6.9 mph 18.4 mph 0.01 in Snow Light Snow
7:26 PM 30.2 °F 21.9 °F 24.8 °F 80% 30.03 in 2.0 mi North 9.2 mph - 0.01 in Snow Light Snow
7:33 PM 30.2 °F 20.2 °F 24.8 °F 80% 30.04 in 2.0 mi NNW 12.7 mph 16.1 mph 0.01 in Snow Light Snow
7:46 PM 30.2 °F 21.9 °F 24.8 °F 80% 30.04 in 1.5 mi NNW 9.2 mph - 0.01 in Snow Light Snow
7:56 PM 30.0 °F 21.7 °F 25.0 °F 82% 30.05 in 1.2 mi North 9.2 mph - 0.01 in Snow Light Snow
8:20 PM 30.2 °F 22.6 °F 24.8 °F 80% 30.05 in 2.5 mi NNW 8.1 mph - 0.00 in Snow Light Snow
8:29 PM 30.2 °F 22.6 °F 24.8 °F 80% 30.05 in 4.0 mi North 8.1 mph - 0.00 in Snow Light Snow
8:37 PM 30.2 °F 20.8 °F 24.8 °F 80% 30.05 in 5.0 mi North 11.5 mph 18.4 mph 0.00 in   Haze
8:49 PM 28.4 °F 17.5 °F 24.8 °F 86% 30.06 in 4.0 mi North 13.8 mph 21.9 mph 0.00 in Snow Light Snow
8:56 PM 28.9 °F 19.2 °F 24.1 °F 82% 30.07 in 4.0 mi North 11.5 mph 21.9 mph 0.00 in Snow Light Snow
9:46 PM 28.4 °F 15.8 °F 23.0 °F 80% 30.08 in 10.0 mi North 18.4 mph 23.0 mph 0.00 in   Overcast
9:56 PM 28.0 °F 15.3 °F 21.9 °F 78% 30.09 in 10.0 mi NNE 18.4 mph 26.5 mph 0.00 in   Overcast
10:56 PM 28.0 °F 20.0 °F 19.9 °F 72% 30.12 in 10.0 mi NNE 8.1 mph 18.4 mph N/A   Overcast
11:56 PM 27.0 °F 17.3 °F 21.0 °F 78% 30.14 in 10.0 mi NNE 10.4 mph - N/A   Overcast